Location: Chomutov
(50.4500°N, 13.4333°E)
Time: 16:59:18
(UTC+02:00)

N. Korean satellite - Visible Passes

Search period start: 25 September 2022 00:00
Search period end: 05 October 2022 00:00
Orbit: 428 x 468 km, 97.3° (Epoch: 24 September)

Date Brightness Start Highest point End Pass type
(mag) Time Alt. Az. Time Alt. Az. Time Alt. Az.
25 Sep 9.1 05:46:44 10° NE 05:49:26 23° E 05:52:06 10° SSE visible
27 Sep 7.9 06:07:53 10° NNE 06:11:01 40° E 06:14:07 10° S visible
28 Sep 9.6 05:33:01 10° NE 05:35:08 16° E 05:37:14 10° SE visible
29 Sep 6.5 06:29:05 10° NNE 06:32:23 77° ESE 06:35:39 10° S visible
30 Sep 8.7 05:53:41 10° NE 05:56:33 27° E 05:59:22 10° SSE visible
01 Oct 10.0 05:19:32 10° ENE 05:20:28 11° E 05:21:24 10° ESE visible
02 Oct 7.4 06:14:31 10° NNE 06:17:43 48° E 06:20:54 10° S visible
03 Oct 9.4 05:39:18 10° NE 05:41:41 19° E 05:44:04 10° SE visible
04 Oct 6.3 06:35:24 10° NNE 06:38:42 88° WNW 06:41:58 10° SSW visible
